Satellite: NO-44
Catalog number: 26931
Epoch time:      11124.94725294
Element set:    0745
Inclination:      067.0496 deg
RA of node:       094.9417 deg
Eccentricity:    0.0007200
Arg of perigee:   263.4885 deg
Mean anomaly:     096.5398 deg
Mean motion:   14.29653424 rev/day
Decay rate:      -1.03e-06 rev/day^2
Epoch rev:           50074
Checksum:              318

Satellite: SO-50
Catalog number: 27607
Epoch time:      11125.39273334
Element set:     457
Inclination:      064.5564 deg
RA of node:       097.7112 deg
Eccentricity:    0.0068258
Arg of perigee:   330.8133 deg
Mean anomaly:     028.9170 deg
Mean motion:   14.71724888 rev/day
Decay rate:       7.79e-06 rev/day^2
Epoch rev:           44979
Checksum:              337

Satellite: CO-55
Catalog number: 27844
Epoch time:      11125.50107961
Element set:     102
Inclination:      098.7061 deg
RA of node:       134.8225 deg
Eccentricity:    0.0009380
Arg of perigee:   327.0078 deg
Mean anomaly:     033.0518 deg
Mean motion:   14.20802307 rev/day
Decay rate:       2.11e-06 rev/day^2
Epoch rev:           40685
Checksum:              264

Satellite: CO-57
Catalog number: 27848
Epoch time:      11125.57874269
Element set:      51
Inclination:      098.7117 deg
RA of node:       134.0734 deg
Eccentricity:    0.0009497
Arg of perigee:   331.7902 deg
Mean anomaly:     028.2745 deg
Mean motion:   14.20582753 rev/day
Decay rate:       1.59e-06 rev/day^2
Epoch rev:           40681
Checksum:              323

Satellite: AO-51
Catalog number: 28375
Epoch time:      11124.63599779
Element set:     960
Inclination:      098.0946 deg
RA of node:       105.3802 deg
Eccentricity:    0.0082884
Arg of perigee:   201.8801 deg
Mean anomaly:     157.8837 deg
Mean motion:   14.40751695 rev/day
Decay rate:       1.20e-06 rev/day^2
Epoch rev:           35979
Checksum:              342

Satellite: CP3
Catalog number: 31129
Epoch time:      11124.61154775
Element set:    0862
Inclination:      097.9010 deg
RA of node:       151.3350 deg
Eccentricity:    0.0101215
Arg of perigee:   316.8668 deg
Mean anomaly:     042.4626 deg
Mean motion:   14.52462723 rev/day
Decay rate:       5.56e-06 rev/day^2
Epoch rev:           21451
Checksum:              270

Satellite: CO-65
Catalog number: 32785
Epoch time:      11125.27184208
Element set:     981
Inclination:      097.8518 deg
RA of node:       189.9792 deg
Eccentricity:    0.0014093
Arg of perigee:   319.8268 deg
Mean anomaly:     040.1899 deg
Mean motion:   14.81964832 rev/day
Decay rate:      1.128e-05 rev/day^2
Epoch rev:           16318
Checksum:              350

Satellite: KKS-1
Catalog number: 33493
Epoch time:      11125.75014802
Element set:     550
Inclination:      098.1185 deg
RA of node:       253.7584 deg
Eccentricity:    0.0019975
Arg of perigee:   175.0098 deg
Mean anomaly:     185.1333 deg
Mean motion:   14.81622877 rev/day
Decay rate:      2.650e-05 rev/day^2
Epoch rev:           12323
Checksum:              300

Satellite: SOHLA-1
Catalog number: 33496
Epoch time:      11124.88371996
Element set:    0414
Inclination:      098.0761 deg
RA of node:       235.1633 deg
Eccentricity:    0.0005526
Arg of perigee:   262.1048 deg
Mean anomaly:     097.9530 deg
Mean motion:   14.69605960 rev/day
Decay rate:       4.95e-06 rev/day^2
Epoch rev:           12212
Checksum:              305

Satellite: TISAT-1
Catalog number: 36799
Epoch time:      11125.76188510
Element set:     825
Inclination:      098.1042 deg
RA of node:       193.5864 deg
Eccentricity:    0.0016496
Arg of perigee:   057.2938 deg
Mean anomaly:     302.9877 deg
Mean motion:   14.80507654 rev/day
Decay rate:      1.661e-05 rev/day^2
Epoch rev:            4403
Checksum:              326

Satellite: STUDSAT
Catalog number: 36801
Epoch time:      11124.75744378
Element set:     178
Inclination:      098.1085 deg
RA of node:       192.4209 deg
Eccentricity:    0.0014705
Arg of perigee:   049.2426 deg
Mean anomaly:     311.0061 deg
Mean motion:   14.80479482 rev/day
Decay rate:      3.947e-05 rev/day^2
Epoch rev:            4387
Checksum:              302

Satellite: RAX
Catalog number: 37223
Epoch time:      11089.46431449
Element set:    0122
Inclination:      071.9716 deg
RA of node:       212.4675 deg
Eccentricity:    0.0019443
Arg of perigee:   068.5267 deg
Mean anomaly:     291.7923 deg
Mean motion:   14.77296529 rev/day
Decay rate:       6.60e-06 rev/day^2
Epoch rev:           01926
Checksum:              313

Satellite: OOREOS
Catalog number: 37224
Epoch time:      11076.42207246
Element set:    0109
Inclination:      071.9712 deg
RA of node:       241.3960 deg
Eccentricity:    0.0017800
Arg of perigee:   096.5373 deg
Mean anomaly:     263.7815 deg
Mean motion:   14.76929834 rev/day
Decay rate:       8.68e-06 rev/day^2
Epoch rev:           01732
Checksum:              300

Satellite: FAST1
Catalog number: 37227
Epoch time:      11125.24135406
Element set:    0018
Inclination:      071.9684 deg
RA of node:       133.9575 deg
Eccentricity:    0.0017065
Arg of perigee:   355.5275 deg
Mean anomaly:     004.5700 deg
Mean motion:   14.76571414 rev/day
Decay rate:       5.74e-06 rev/day^2
Epoch rev:           00298
Checksum:              285

